Ft Lauderdale, FL

7:58 AM EDT on March 26, 2017 (GMT -0400)
Fort Lauderdale-Hollywood International

Weather History for KFLL - April, 2013

Change the Weather History Date:

Friday, April 12, 2013

  Actual Average Record
Temperature  
Mean Temperature 83 °F 76 °F  
Max Temperature 87 °F 82 °F 93 °F (1946)
Min Temperature 78 °F 69 °F 46 °F (1918)
Degree Days  
Heating Degree Days 0 0  
Month to date heating degree days 0 0  
Since 1 July heating degree days 85 111  
Cooling Degree Days 18 11  
Month to date cooling degree days 135 123  
Year to date cooling degree days 724 733  
Growing Degree Days 32 (Base 50)    
Moisture  
Dew Point 74 °F    
Average Humidity 75    
Maximum Humidity 85    
Minimum Humidity 65    
Precipitation  
Precipitation 0.10 in 0.10 in 2.86 in (1929)
Month to date precipitation 3.08 1.30  
Year to date precipitation 6.29 11.25  
Snow  
Snow 0.00 in - - ()
Month to date snowfall 0.0  
Since 1 July snowfall 0.0  
Snow Depth 0.00 in    
Sea Level Pressure  
Sea Level Pressure 29.92 in    
Wind  
Wind Speed 11 mph (SSE)    
Max Wind Speed 21 mph    
Max Gust Speed 28 mph    
Visibility 10 miles    
Events Rain    
T = Trace of Precipitation, MM = Missing Value Source: NWS Daily Summary

Daily Weather History Graph

Daily Weather History Graph

Search for Another Location

Airport or City:

Trip Planner

Search our weather history database for the weather conditions in past years. The results will help you decide how hot, cold, wet, or windy it might be!

Date:

Astronomy

Apr. 12, 2013 Rise Set
Actual Time 7:00 AM EDT 7:42 PM EDT
Civil Twilight 6:36 AM EDT 8:06 PM EDT
Nautical Twilight 6:09 AM EDT 8:33 PM EDT
Astronomical Twilight 5:41 AM EDT 9:02 PM EDT
Moon 8:21 AM EDT (4/12) 9:57 PM EDT (4/12)
Length of Visible Light 13h 29m
Length of Day
12h 42m
Waxing Crescent, 5% of the Moon is Illuminated
Apr 12
Waxing Crescent
Apr 18
First Quarter
Apr 25
Full
May 2
Last Quarter
May 9
New

Hourly Weather History & Observations

Time (EDT) Temp. Heat Index Dew Point Humidity Pressure Visibility Wind Dir Wind Speed Gust Speed Precip Events Conditions
12:21 AM 78.8 °F - 71.6 °F 78% 29.91 in 10.0 mi SSE 11.5 mph - N/A   Mostly Cloudy
12:53 AM 78.1 °F - 72.0 °F 81% 29.91 in 10.0 mi SSE 12.7 mph 23.0 mph N/A   Scattered Clouds
1:53 AM 78.1 °F - 72.0 °F 81% 29.91 in 10.0 mi SSE 11.5 mph 18.4 mph N/A   Partly Cloudy
2:27 AM 78.8 °F - 73.4 °F 83% 29.92 in 10.0 mi SSE 12.7 mph 18.4 mph N/A   Mostly Cloudy
2:42 AM 78.8 °F - 73.4 °F 83% 29.92 in 10.0 mi SSE 12.7 mph 20.7 mph N/A   Scattered Clouds
2:53 AM 78.1 °F - 73.0 °F 84% 29.92 in 10.0 mi SSE 12.7 mph 20.7 mph N/A   Mostly Cloudy
3:53 AM 78.1 °F - 73.0 °F 84% 29.93 in 10.0 mi South 12.7 mph - 0.00 in   Overcast
4:53 AM 78.1 °F - 73.0 °F 84% 29.92 in 10.0 mi South 8.1 mph - N/A   Mostly Cloudy
5:53 AM 78.1 °F - 73.0 °F 84% 29.91 in 10.0 mi SSE 9.2 mph - N/A   Mostly Cloudy
6:53 AM 78.1 °F - 73.0 °F 84% 29.93 in 10.0 mi SSE 10.4 mph - N/A   Mostly Cloudy
7:53 AM 78.1 °F - 73.9 °F 87% 29.94 in 10.0 mi South 8.1 mph - N/A   Mostly Cloudy
8:53 AM 79.0 °F - 75.0 °F 88% 29.96 in 4.0 mi SSE 8.1 mph - 0.03 in Rain Light Rain
9:00 AM 78.8 °F - 75.2 °F 89% 29.95 in 7.0 mi South 8.1 mph - 0.00 in Rain Light Rain
9:53 AM 79.0 °F - 75.0 °F 88% 29.95 in 10.0 mi SSE 10.4 mph - 0.04 in   Overcast
10:53 AM 81.0 °F 86.7 °F 75.0 °F 82% 29.95 in 10.0 mi South 11.5 mph 18.4 mph 0.03 in   Overcast
11:53 AM 82.9 °F 89.4 °F 73.9 °F 74% 29.95 in 10.0 mi South 13.8 mph - N/A   Mostly Cloudy
12:53 PM 84.0 °F 92.6 °F 75.9 °F 76% 29.93 in 10.0 mi SSE 15.0 mph 23.0 mph N/A   Mostly Cloudy
1:53 PM 86.0 °F 95.1 °F 75.0 °F 70% 29.92 in 10.0 mi South 13.8 mph 19.6 mph N/A   Mostly Cloudy
2:53 PM 84.9 °F 93.3 °F 75.0 °F 72% 29.90 in 10.0 mi SSE 15.0 mph 24.2 mph N/A   Scattered Clouds
3:53 PM 84.9 °F 92.1 °F 73.9 °F 69% 29.88 in 10.0 mi SSE 18.4 mph 25.3 mph N/A   Partly Cloudy
4:53 PM 84.0 °F 91.2 °F 73.9 °F 72% 29.88 in 10.0 mi SSE 19.6 mph 26.5 mph N/A   Partly Cloudy
5:53 PM 84.0 °F 89.6 °F 72.0 °F 67% 29.88 in 10.0 mi South 12.7 mph 21.9 mph N/A   Partly Cloudy
6:53 PM 82.9 °F 88.0 °F 72.0 °F 69% 29.89 in 10.0 mi South 10.4 mph - N/A   Partly Cloudy
7:53 PM 81.0 °F 85.8 °F 73.0 °F 77% 29.91 in 10.0 mi South 8.1 mph - N/A   Partly Cloudy
8:53 PM 80.1 °F 83.8 °F 72.0 °F 76% 29.93 in 10.0 mi South 6.9 mph - N/A   Partly Cloudy
9:53 PM 80.1 °F 84.2 °F 73.0 °F 79% 29.95 in 10.0 mi South 8.1 mph - N/A   Mostly Cloudy
10:53 PM 80.1 °F 84.2 °F 73.0 °F 79% 29.96 in 10.0 mi SSW 5.8 mph - N/A   Mostly Cloudy
11:53 PM 80.1 °F 84.5 °F 73.9 °F 81% 29.96 in 10.0 mi South 5.8 mph - N/A   Mostly Cloudy